15min,AgWx,beryljct,423,16JAN2021:00:00:00,29.2,12.77,28.9,28.0,26.8,28.0,25.9,67,69,65,0.338,17.3,17.9,16.6,2.433,2.9,339,13,5.3,-0.00004,-0.00004,31.8,32.6,8,0,0,.,6.20,0.00,0.00
15min,AgWx,beryljct,423,16JAN2021:00:15:00,29.1,12.76,28.2,27.2,28.1,28.6,26.9,65,67,64,0.338,17.7,18.3,17.1,2.718,1.7,327,49,3.4,-0.00009,-0.00011,31.8,32.6,8,0,0,.,6.20,0.00,0.00
15min,AgWx,beryljct,423,16JAN2021:00:30:00,29.1,12.76,27.6,27.6,27.2,27.6,26.7,70,71,67,0.356,18.7,19.1,17.8,2.653,2.0,225,20,3.4,-0.00008,-0.00010,31.7,32.6,9,0,0,.,6.21,0.00,0.00
15min,AgWx,beryljct,423,16JAN2021:00:45:00,29.3,12.76,28.4,28.0,27.6,28.0,27.0,69,71,68,0.358,18.8,19.2,18.3,1.863,3.5,164,11,5.4,-0.00003,-0.00002,31.7,32.7,8,0,0,.,6.20,0.00,0.00
15min,AgWx,beryljct,423,16JAN2021:01:00:00,29.4,12.74,28.0,27.4,27.6,28.0,27.3,69,70,69,0.352,18.9,19.1,18.6,4.077,1.8,25,48,4.4,-0.00010,-0.00012,31.7,32.7,9,0,0,.,6.20,0.00,0.00
15min,AgWx,beryljct,423,16JAN2021:01:15:00,29.2,12.74,27.1,26.6,26.7,27.7,26.0,69,71,67,0.346,18.0,18.7,17.4,3.661,3.7,315,43,5.4,-0.00002,-0.00001,31.6,32.7,8,0,0,.,6.20,0.00,0.00
15min,AgWx,beryljct,423,16JAN2021:01:30:00,29.1,12.74,27.2,27.1,26.9,27.4,26.4,71,72,70,0.354,18.7,19.1,18.3,1.841,2.8,166,41,4.5,-0.00005,-0.00005,31.6,32.7,8,0,0,.,6.20,0.00,0.00
15min,AgWx,beryljct,423,16JAN2021:01:45:00,28.8,12.73,25.4,25.4,26.3,27.1,25.4,73,74,71,0.346,18.8,19.1,18.2,0,2.1,124,39,3.8,-0.00008,-0.00010,31.5,32.7,8,0,0,.,6.20,0.00,0.00
15min,AgWx,beryljct,423,16JAN2021:02:00:00,28.3,12.72,25.4,25.2,25.2,25.7,24.8,75,77,71,0.329,18.3,19.0,17.1,1.513,1.1,350,26,4.5,-0.00013,-0.00018,31.5,32.7,8,0,0,.,6.21,0.00,0.00
15min,AgWx,beryljct,423,16JAN2021:02:15:00,27.8,12.72,25.3,24.4,24.8,25.2,24.4,71,72,70,0.321,16.7,17.2,16.3,2.477,2.5,352,29,5.7,-0.00006,-0.00007,31.5,32.7,8,0,0,.,6.21,0.00,0.00
15min,AgWx,beryljct,423,16JAN2021:02:30:00,27.5,12.71,28.8,28.0,25.9,28.0,24.4,70,72,67,0.345,17.5,18.4,16.6,3.639,2.6,337,21,4.4,-0.00006,-0.00006,31.4,32.7,9,0,0,.,6.20,0.00,0.00
15min,AgWx,beryljct,423,16JAN2021:02:45:00,28.1,12.71,30.7,30.7,29.9,30.9,28.0,65,67,64,0.375,19.8,20.5,18.3,3.464,3.7,49,23,6.2,-0.00001,0.00000,31.4,32.7,8,0,0,.,6.20,0.00,0.00
15min,AgWx,beryljct,423,16JAN2021:03:00:00,28.8,12.7,30.3,30.1,30.1,30.7,29.9,67,69,65,0.392,20.4,21.3,20.0,5.13,4.3,84,15,6.3,0.00001,0.00002,31.4,32.7,8,0,0,.,6.20,0.00,0.00
15min,AgWx,beryljct,423,16JAN2021:03:15:00,29.2,12.69,29.1,29.2,30.2,30.9,29.2,69,70,68,0.377,21.2,22.0,20.0,6.072,5.9,152,31,7.7,0.00004,0.00006,31.3,32.7,8,0,0,.,6.20,0.00,0.00
15min,AgWx,beryljct,423,16JAN2021:03:30:00,29.5,12.68,31.2,31.0,30.6,31.4,29.1,68,70,66,0.396,21.2,21.7,20.2,3.946,5.0,156,16,7.6,0.00002,0.00004,31.3,32.7,8,0,0,.,6.20,0.00,0.00
15min,AgWx,beryljct,423,16JAN2021:03:45:00,30.1,12.67,33.6,33.5,31.9,33.5,31.0,66,67,62,0.405,21.6,22.2,21.3,3.376,4.1,141,36,6.6,0.00000,0.00002,31.2,32.7,8,0,0,.,6.20,0.00,0.00
15min,AgWx,beryljct,423,16JAN2021:04:00:00,31.0,12.67,31.4,31.2,33.0,33.7,31.1,63,66,61,0.391,21.7,22.2,20.8,5.853,4.1,344,28,6.2,0.00001,0.00004,31.2,32.7,8,0,0,.,6.21,0.00,0.00
15min,AgWx,beryljct,423,16JAN2021:04:15:00,31.0,12.66,30.0,30.4,30.8,31.5,30.1,67,69,66,0.386,21.1,21.7,20.6,4.582,5.2,321,12,6.9,0.00003,0.00005,31.2,32.7,8,0,0,.,6.20,0.00,0.00
15min,AgWx,beryljct,423,16JAN2021:04:30:00,30.5,12.65,28.1,27.8,28.7,30.4,27.8,71,73,67,0.377,20.4,21.0,19.9,4.889,4.2,299,14,5.3,-0.00001,-0.00000,31.1,32.7,8,0,0,.,6.21,0.00,0.00
15min,AgWx,beryljct,423,16JAN2021:04:45:00,29.8,12.65,29.4,29.2,28.3,29.2,27.3,73,75,71,0.388,20.7,21.1,20.0,7.804,6.8,307,7.9,9.4,0.00003,0.00005,31.1,32.7,8,0,0,.,6.21,0.00,0.00
15min,AgWx,beryljct,423,16JAN2021:05:00:00,29.2,12.63,29.7,29.3,28.5,29.4,27.9,72,73,71,0.387,20.6,21.2,20.2,7.366,7.4,313,5.8,9.3,0.00005,0.00007,31.0,32.7,8,0,0,.,6.21,0.00,0.00
15min,AgWx,beryljct,423,16JAN2021:05:15:00,28.7,12.63,27.8,27.2,28.0,29.4,27.1,72,74,70,0.374,20.2,21.0,19.7,5.765,6.0,306,5.3,7.4,0.00002,0.00004,31.0,32.7,9,0,0,.,6.21,0.00,0.00
15min,AgWx,beryljct,423,16JAN2021:05:30:00,28.0,12.62,27.4,27.3,27.1,27.8,26.5,75,76,73,0.372,20.1,20.7,19.5,5.371,4.7,312,10,7.1,-0.00001,-0.00000,30.9,32.7,8,0,0,.,6.20,0.00,0.00
15min,AgWx,beryljct,423,16JAN2021:05:45:00,27.4,12.6,28.0,27.2,26.9,27.3,26.6,75,76,74,0.374,19.9,20.6,19.5,7.037,5.3,315,7.7,7.0,0.00000,0.00001,30.9,32.7,8,0,0,.,6.21,0.00,0.00
15min,AgWx,beryljct,423,16JAN2021:06:00:00,26.9,12.6,25.8,25.9,26.4,27.3,25.9,75,76,73,0.355,19.5,20.6,18.6,5.064,5.5,320,6.0,7.0,0.00000,0.00002,30.8,32.6,8,0,0,.,6.21,0.00,0.00
15min,AgWx,beryljct,423,16JAN2021:06:15:00,26.4,12.59,30.4,28.1,26.6,28.1,25.4,74,77,71,0.373,19.6,20.5,18.6,6.949,5.7,315,9.4,7.8,0.00001,0.00002,30.8,32.6,8,0,0,.,6.21,0.00,0.00
15min,AgWx,beryljct,423,16JAN2021:06:30:00,26.4,12.59,26.5,26.8,27.7,28.5,26.7,70,72,70,0.356,19.4,20.4,18.6,4.823,5.7,320,7.8,7.8,0.00002,0.00004,30.7,32.6,8,0,0,.,6.21,0.00,0.00
15min,AgWx,beryljct,423,16JAN2021:06:45:00,26.3,12.56,27.3,26.8,26.9,27.5,26.6,71,73,70,0.353,18.9,19.3,18.5,4.034,4.7,323,13,6.9,-0.00000,0.00001,30.7,32.6,9,0,0,.,6.21,0.00,0.00
15min,AgWx,beryljct,423,16JAN2021:07:00:00,26.1,12.58,26.6,25.4,26.1,26.8,25.4,72,73,71,0.342,18.3,19.0,17.6,5.108,4.1,333,15,5.5,-0.00002,-0.00001,30.6,32.6,8,0,0,.,6.21,0.00,0.00
15min,AgWx,beryljct,423,16JAN2021:07:15:00,25.8,12.56,26.8,26.7,25.6,26.7,24.4,74,76,72,0.357,18.4,19.2,17.4,5.502,4.9,306,10,7.4,0.00016,0.00028,30.5,32.6,8,0,0,.,6.21,0.00,0.00
15min,AgWx,beryljct,423,16JAN2021:07:30:00,25.7,12.58,25.2,25.4,26.1,26.7,25.4,73,74,71,0.343,18.5,19.3,17.8,5.152,4.9,324,9.6,7.1,0.00017,0.00030,30.5,32.6,8,0,0,.,6.21,0.00,0.00
15min,AgWx,beryljct,423,16JAN2021:07:45:00,25.4,12.58,24.7,24.3,25.0,25.4,24.3,75,75,74,0.336,18.1,18.6,17.6,4.45,4.8,321,11,7.0,0.00016,0.00027,30.4,32.6,8,3,0,.,6.21,0.00,0.00
15min,AgWx,beryljct,423,16JAN2021:08:00:00,25.1,12.6,24.3,24.5,24.2,24.8,23.8,76,77,75,0.337,17.8,18.2,17.4,4.735,5.6,314,9.4,7.2,0.00018,0.00030,30.3,32.6,8,10,0,.,6.21,0.00,0.00
15min,AgWx,beryljct,423,16JAN2021:08:15:00,25.2,12.94,25.8,25.2,25.1,25.4,24.4,75,76,74,0.347,18.3,18.7,17.6,5.765,5.4,312,11,8.4,0.00030,0.00042,30.2,32.6,9,52,0,.,6.21,0.00,0.00
15min,AgWx,beryljct,423,16JAN2021:08:30:00,25.8,13.3,26.6,26.2,25.9,26.2,25.3,74,76,73,0.355,18.8,19.1,18.5,5.744,5.1,319,7.1,6.8,0.00035,0.00048,30.1,32.6,9,72,0,.,6.20,0.00,0.00
15min,AgWx,beryljct,423,16JAN2021:08:45:00,27.1,13.68,28.2,27.7,27.0,27.8,26.2,72,74,69,0.358,19.1,19.3,18.8,5.48,5.8,325,16,8.6,0.00048,0.00065,30.1,32.5,8,119,0,.,6.21,0.00,0.00
15min,AgWx,beryljct,423,16JAN2021:09:00:00,28.6,14.79,28.7,28.4,28.1,28.5,27.7,69,70,69,0.365,19.3,19.7,19.1,4.406,5.2,320,10,8.7,0.00059,0.00077,30.0,32.5,9,155,0,.,6.21,0.00,0.00
15min,AgWx,beryljct,423,16JAN2021:09:15:00,30.3,14.82,30.3,29.9,29.1,29.9,28.4,68,69,67,0.375,19.9,20.3,19.4,5.897,5.4,323,10,6.6,0.00070,0.00090,29.9,32.5,8,184,0,.,6.21,0.00,0.00
15min,AgWx,beryljct,423,16JAN2021:09:30:00,32.1,14.78,31.9,31.2,30.8,31.3,29.9,65,67,63,0.376,20.3,20.6,20.0,5.765,5.9,337,7.8,7.6,0.00089,0.00113,29.9,32.5,9,235,0,.,6.20,0.00,0.00
15min,AgWx,beryljct,423,16JAN2021:09:45:00,34.2,14.75,35.0,34.4,33.0,34.5,31.3,61,64,57,0.384,20.9,21.5,20.4,7.015,7.0,355,15,9.9,0.00110,0.00143,29.8,32.5,8,278,0,.,6.20,0.00,0.00
15min,AgWx,beryljct,423,16JAN2021:10:00:00,36.2,14.69,35.7,35.6,35.3,35.8,34.5,57,57,56,0.397,21.4,21.8,20.9,5.59,6.4,360,11,9.1,0.00119,0.00155,29.8,32.5,8,269,0,.,6.20,0.00,0.00
15min,AgWx,beryljct,423,16JAN2021:10:15:00,37.9,14.63,40.1,39.6,37.5,39.6,35.6,54,57,52,0.429,22.5,23.4,21.6,11.03,7.3,359,13,12.4,0.00142,0.00186,29.8,32.5,8,314,0,.,6.20,0.00,0.00
15min,AgWx,beryljct,423,16JAN2021:10:30:00,40.0,14.57,42.3,41.3,40.5,41.5,39.6,50,52,49,0.435,23.6,24.2,23.2,9.27,10.3,12,9.4,15.2,0.00176,0.00238,29.8,32.4,9,354,0,.,6.20,0.00,0.00
15min,AgWx,beryljct,423,16JAN2021:10:45:00,42.1,14.61,42.1,41.8,42.3,43.0,41.4,48,50,47,0.431,24.1,24.6,23.3,10.19,11.7,15,12,16.2,0.00203,0.00277,29.8,32.4,8,404,0,.,6.19,0.00,0.00
15min,AgWx,beryljct,423,16JAN2021:11:00:00,43.8,14.53,44.0,44.6,43.4,44.6,41.8,47,48,46,0.457,24.5,25.1,23.5,19.27,12.5,18,15,19.3,0.00217,0.00298,29.9,32.4,8,419,0,.,6.20,0.00,0.00
15min,AgWx,beryljct,423,16JAN2021:11:15:00,45.3,14.12,44.9,44.7,44.7,46.2,44.2,46,47,45,0.465,25.3,26.6,24.8,18.28,15.6,38,8.9,20.9,0.00235,0.00331,29.9,32.4,8,438,0,.,6.19,0.00,0.00
15min,AgWx,beryljct,423,16JAN2021:11:30:00,46.4,14.12,44.7,45.4,45.3,45.7,44.6,47,47,46,0.487,26.1,26.6,25.3,20.32,16.2,30,11,22.7,0.00246,0.00344,30.0,32.4,8,469,0,.,6.19,0.00,0.00
15min,AgWx,beryljct,423,16JAN2021:11:45:00,47.3,14.05,45.6,46.4,45.9,46.6,45.2,46,47,45,0.489,26.3,26.8,26.0,20.23,16.6,40,9.8,20.6,0.00255,0.00357,30.1,32.3,8,479,0,.,6.19,0.00,0.00
15min,AgWx,beryljct,423,16JAN2021:12:00:00,48.0,14.07,46.4,46.1,46.0,46.4,45.7,46,47,45,0.487,26.5,26.9,26.2,12.17,17.4,44,10,21.8,0.00264,0.00369,30.2,32.3,9,511,0,.,6.19,0.00,0.00
15min,AgWx,beryljct,423,16JAN2021:12:15:00,48.6,14.07,47.3,46.6,46.7,47.7,46.2,45,46,44,0.486,26.5,27.1,26.0,13,13.9,46,12,18.1,0.00271,0.00369,30.3,32.3,8,531,0,.,6.19,0.00,0.00
15min,AgWx,beryljct,423,16JAN2021:12:30:00,49.2,14.08,46.5,46.8,46.6,47.3,46.0,45,46,44,0.487,26.4,26.9,26.0,14.56,14.6,51,11,18.9,0.00273,0.00373,30.3,32.3,8,537,0,.,6.18,0.00,0.00
15min,AgWx,beryljct,423,16JAN2021:12:45:00,49.6,14,46.8,46.8,46.8,47.6,46.4,44,45,43,0.479,26.3,27.0,25.6,12.28,12.0,41,12,17.9,0.00272,0.00363,30.4,32.3,8,538,0,.,6.18,0.00,0.00
15min,AgWx,beryljct,423,16JAN2021:13:00:00,49.9,14.11,47.5,47.5,47.1,48.0,46.5,44,45,43,0.484,26.4,27.3,25.8,15.61,12.9,47,14,17.5,0.00277,0.00372,30.5,32.3,8,542,0,.,6.18,0.00,0.00
15min,AgWx,beryljct,423,16JAN2021:13:15:00,50.3,14,47.6,48.2,47.6,48.6,47.0,44,44,43,0.493,26.7,27.3,26.3,11.93,13.1,48,14,18.6,0.00280,0.00378,30.6,32.3,8,539,0,.,6.18,0.00,0.00
15min,AgWx,beryljct,423,16JAN2021:13:30:00,50.8,13.99,47.4,47.5,48.1,49.3,47.3,43,44,42,0.491,26.9,27.7,26.2,9.36,11.9,48,15,16.7,0.00271,0.00366,30.8,32.3,8,511,0,.,6.18,0.00,0.00
15min,AgWx,beryljct,423,16JAN2021:13:45:00,51.2,14.01,47.9,48.5,48.4,49.3,47.6,43,44,42,0.501,27.0,27.6,26.4,13.48,11.4,46,14,19.6,0.00261,0.00353,30.9,32.3,8,485,0,.,6.18,0.00,0.00
15min,AgWx,beryljct,423,16JAN2021:14:00:00,51.5,14.03,48.8,48.8,48.4,49.0,47.8,43,44,42,0.494,26.9,27.5,26.5,16.2,12.0,44,13,16.6,0.00263,0.00358,31.2,32.3,8,486,0,.,6.17,0.00,0.00
15min,AgWx,beryljct,423,16JAN2021:14:15:00,51.9,13.97,49.5,49.7,49.2,49.9,48.5,42,42,40,0.486,26.8,27.3,26.2,11.97,10.1,35,16,15.0,0.00258,0.00348,31.6,32.3,8,468,0,.,6.17,0.00,0.00
15min,AgWx,beryljct,423,16JAN2021:14:30:00,52.4,13.92,48.4,48.8,49.5,50.2,48.8,40,41,40,0.483,26.4,26.9,25.9,7.804,11.1,44,17,15.2,0.00260,0.00357,32.1,32.3,9,458,0,.,6.18,0.00,0.00
15min,AgWx,beryljct,423,16JAN2021:14:45:00,52.9,13.94,49.6,49.7,49.6,50.3,48.6,41,42,40,0.490,26.6,27.1,26.0,8.15,9.9,46,14,13.9,0.00247,0.00338,32.5,32.3,8,438,0,.,6.17,0.00,0.00
15min,AgWx,beryljct,423,16JAN2021:15:00:00,53.4,13.94,50.2,49.8,50.0,50.7,49.4,40,40,39,0.481,26.6,27.1,26.1,7.366,10.0,43,17,14.8,0.00241,0.00333,33.0,32.3,8,414,0,.,6.17,0.00,0.00
15min,AgWx,beryljct,423,16JAN2021:15:15:00,53.8,13.91,50.2,50.2,50.0,50.6,49.5,40,40,39,0.484,26.4,26.8,25.9,9.69,10.6,41,14,14.8,0.00234,0.00329,33.5,32.3,8,391,0,.,6.18,0.00,0.00
15min,AgWx,beryljct,423,16JAN2021:15:30:00,53.9,13.99,50.0,49.6,49.9,50.4,49.5,40,40,39,0.482,26.4,26.9,26.0,11.68,10.9,45,12,16.8,0.00216,0.00311,33.9,32.3,8,346,0,.,6.17,0.00,0.00
15min,AgWx,beryljct,423,16JAN2021:15:45:00,53.8,13.94,49.2,49.5,49.6,50.2,49.2,40,40,39,0.475,26.0,26.7,25.6,15.02,12.9,51,10,15.8,0.00212,0.00316,34.3,32.4,8,313,0,.,6.17,0.00,0.00
15min,AgWx,beryljct,423,16JAN2021:16:00:00,53.5,13.95,49.1,49.2,49.2,49.5,48.9,40,40,40,0.474,26.0,26.3,25.6,10.68,11.6,52,10,15.6,0.00189,0.00285,34.7,32.4,8,277,0,.,6.17,0.00,0.00
15min,AgWx,beryljct,423,16JAN2021:16:15:00,53.1,13.93,48.9,48.7,48.9,49.2,48.7,40,41,39,0.453,25.6,26.2,24.6,9.82,12.1,54,7.2,15.8,0.00174,0.00271,35.1,32.5,8,237,0,.,6.17,0.00,0.00
15min,AgWx,beryljct,423,16JAN2021:16:30:00,52.6,13.91,48.2,48.1,48.4,48.8,48.0,40,42,39,0.478,25.1,26.0,24.5,12.61,11.4,57,10,14.8,0.00154,0.00245,35.4,32.5,8,202,0,.,6.17,0.00,0.00
15min,AgWx,beryljct,423,16JAN2021:16:45:00,52.0,13.96,46.8,46.9,47.5,48.1,46.9,41,42,40,0.452,24.9,26.0,24.5,8.64,12.1,60,10,16.3,0.00065,0.00075,35.6,32.6,8,160,0,.,6.18,0.00,0.00
15min,AgWx,beryljct,423,16JAN2021:17:00:00,50.9,14.02,46.2,46.1,46.5,46.9,46.0,42,42,41,0.440,24.5,24.7,24.0,12.3,12.1,65,6.8,16.1,0.00059,0.00069,35.8,32.6,8,131,0,.,6.18,0.00,0.00
15min,AgWx,beryljct,423,16JAN2021:17:15:00,49.8,14.03,44.4,44.7,45.5,46.2,44.7,43,45,41,0.448,24.2,24.5,23.9,8.35,10.9,59,7.9,13.9,0.00051,0.00060,36.0,32.7,8,98,0,.,6.18,0.00,0.00
15min,AgWx,beryljct,423,16JAN2021:17:30:00,48.2,13.1,43.3,42.9,43.9,44.8,42.9,47,49,45,0.464,24.8,25.3,24.4,10.7,11.4,64,6.4,15.7,0.00040,0.00047,36.1,32.8,8,29,0,.,6.18,0.00,0.00
15min,AgWx,beryljct,423,16JAN2021:17:45:00,46.1,13.05,41.9,41.9,42.4,42.9,41.9,51,53,49,0.474,25.6,26.0,25.3,8.77,9.9,63,8.0,12.5,0.00029,0.00036,36.2,32.9,8,10,0,.,6.18,0.00,0.00
15min,AgWx,beryljct,423,16JAN2021:18:00:00,44.2,13.01,40.2,40.3,41.1,41.9,40.3,55,56,53,0.475,25.9,26.2,25.7,7.826,8.1,69,7.2,10.8,0.00021,0.00027,36.2,32.9,8,4,0,.,6.18,0.00,0.00
15min,AgWx,beryljct,423,16JAN2021:18:15:00,42.5,12.98,38.7,39.0,39.6,40.3,39.0,58,59,56,0.473,25.9,26.2,25.7,6.05,7.3,72,6.8,9.4,0.00016,0.00021,36.1,33.0,8,0,0,.,6.18,0.00,0.00
15min,AgWx,beryljct,423,16JAN2021:18:30:00,41.0,12.96,37.5,37.5,38.2,39.0,37.4,61,63,59,0.474,25.8,26.1,25.5,6.555,6.5,73,6.9,8.2,0.00011,0.00015,36.1,33.1,8,0,0,.,6.18,0.00,0.00
15min,AgWx,beryljct,423,16JAN2021:18:45:00,39.6,12.95,37.0,36.7,37.1,37.6,36.6,63,64,62,0.470,25.7,25.9,25.4,5.524,5.2,82,9.3,8.4,0.00006,0.00009,36.0,33.2,9,0,0,.,6.19,0.00,0.00
15min,AgWx,beryljct,423,16JAN2021:19:00:00,38.4,12.94,35.2,36.1,36.4,36.8,35.9,64,65,64,0.469,25.5,25.9,25.2,4.165,4.6,84,7.3,6.4,0.00003,0.00006,35.9,33.3,8,0,0,.,6.19,0.00,0.00
15min,AgWx,beryljct,423,16JAN2021:19:15:00,37.4,12.93,34.9,34.7,35.4,36.1,34.7,66,68,65,0.460,25.1,25.6,24.8,6.379,5.0,80,8.0,7.2,0.00003,0.00006,35.7,33.4,9,0,0,.,6.19,0.00,0.00
15min,AgWx,beryljct,423,16JAN2021:19:30:00,36.6,12.91,35.0,34.7,34.7,34.9,34.5,68,69,68,0.465,25.3,25.5,25.0,7.629,7.5,70,6.5,9.0,0.00008,0.00011,35.5,33.5,8,0,0,.,6.19,0.00,0.00
15min,AgWx,beryljct,423,16JAN2021:19:45:00,35.9,12.9,32.6,32.6,33.7,34.8,32.6,70,72,68,0.448,24.9,25.5,24.3,3.223,6.2,78,9.8,8.3,0.00004,0.00007,35.3,33.5,9,0,0,.,6.19,0.00,0.00
15min,AgWx,beryljct,423,16JAN2021:20:00:00,34.8,12.9,30.9,30.7,31.2,32.6,29.2,73,77,71,0.442,23.7,24.7,21.9,4.077,3.5,184,48,4.7,-0.00004,-0.00004,35.1,33.6,9,0,0,.,6.19,0.00,0.00
15min,AgWx,beryljct,423,16JAN2021:20:15:00,33.6,12.89,33.4,32.6,31.7,32.6,30.3,74,76,70,0.459,24.4,25.1,21.8,0,2.4,209,22,4.8,-0.00008,-0.00010,35.0,33.7,8,0,0,.,6.20,0.00,0.00
15min,AgWx,beryljct,423,16JAN2021:20:30:00,32.8,12.86,31.4,31.2,32.4,33.4,31.2,73,74,71,0.441,24.6,25.5,24.0,1.03,1.9,78,24,4.0,-0.00011,-0.00013,34.8,33.7,8,0,0,.,6.20,0.00,0.00
15min,AgWx,beryljct,423,16JAN2021:20:45:00,32.0,12.88,33.2,32.4,31.9,32.4,31.1,74,76,73,0.453,24.6,25.0,24.0,1.469,1.4,9.4,89,3.2,-0.00014,-0.00018,34.6,33.8,9,0,0,.,6.19,0.00,0.00
15min,AgWx,beryljct,423,16JAN2021:21:00:00,31.5,12.86,31.2,30.7,31.9,32.7,30.7,73,75,72,0.434,24.3,25.0,23.6,5.371,3.2,49,11,5.4,-0.00005,-0.00005,34.4,33.8,8,0,0,.,6.20,0.00,0.00
15min,AgWx,beryljct,423,16JAN2021:21:15:00,31.0,12.86,29.8,29.1,29.6,30.7,28.9,77,78,75,0.425,23.2,23.8,22.7,2.17,2.9,18,47,4.9,-0.00007,-0.00007,34.1,33.9,9,0,0,.,6.20,0.00,0.00
15min,AgWx,beryljct,423,16JAN2021:21:30:00,30.4,12.85,30.9,30.5,30.3,30.9,29.1,77,79,75,0.447,24.0,24.5,23.3,3.201,2.2,299,31,3.6,-0.00010,-0.00012,34.0,33.9,9,0,0,.,6.20,0.00,0.00
15min,AgWx,beryljct,423,16JAN2021:21:45:00,30.1,12.85,32.0,32.2,31.2,32.2,30.1,76,78,74,0.461,24.5,25.3,23.1,1.907,1.9,185,44,3.4,-0.00011,-0.00014,33.8,33.9,8,0,0,.,6.20,0.00,0.00
15min,AgWx,beryljct,423,16JAN2021:22:00:00,29.8,12.84,32.4,30.9,31.3,32.2,30.8,75,76,74,0.447,24.4,25.1,23.5,1.995,2.0,160,21,3.3,-0.00011,-0.00013,33.7,33.9,9,0,0,.,6.20,0.00,0.00
15min,AgWx,beryljct,423,16JAN2021:22:15:00,29.5,12.83,32.0,30.5,31.3,32.2,30.2,76,78,73,0.426,24.5,25.6,22.9,1.776,0.7,45,79,2.2,-0.00019,-0.00027,33.6,34.0,9,0,0,.,6.20,0.00,0.00
15min,AgWx,beryljct,423,16JAN2021:22:30:00,29.3,12.83,25.1,25.4,30.0,31.4,25.4,77,78,75,0.361,23.6,25.0,19.3,5.239,2.9,342,14,5.2,-0.00007,-0.00008,33.4,34.0,9,0,0,.,6.20,0.00,0.00
15min,AgWx,beryljct,423,16JAN2021:22:45:00,28.3,12.81,28.9,26.2,24.5,26.2,22.9,84,90,78,0.421,20.5,23.0,18.8,4.845,4.6,306,5.5,5.5,-0.00004,-0.00004,33.3,34.0,9,0,0,.,6.21,0.00,0.00
15min,AgWx,beryljct,423,16JAN2021:23:00:00,27.6,12.81,28.1,26.9,26.7,27.6,25.9,84,87,81,0.411,22.4,23.7,21.2,4.428,3.4,310,11,4.6,-0.00007,-0.00008,33.2,34.0,9,0,0,.,6.21,0.00,0.00
15min,AgWx,beryljct,423,16JAN2021:23:15:00,27.0,12.81,25.2,24.0,24.7,27.7,21.9,84,88,79,0.384,20.5,23.6,16.7,0.658,3.1,325,62,4.7,-0.00007,-0.00008,33.1,34.0,8,0,0,.,6.20,0.00,0.00
15min,AgWx,beryljct,423,16JAN2021:23:30:00,26.3,12.79,23.6,24.2,24.9,26.9,23.5,86,88,82,0.388,21.2,23.4,19.2,2.521,2.2,190,60,4.4,-0.00010,-0.00012,33.0,34.0,8,0,0,.,6.21,0.00,0.00
15min,AgWx,beryljct,423,16JAN2021:23:45:00,25.4,12.77,23.1,22.0,22.0,24.1,20.1,87,90,85,0.364,18.8,20.7,16.3,2.521,1.4,279,54,2.7,-0.00012,-0.00016,32.9,34.0,8,0,0,.,6.21,0.00,0.00
15min,AgWx,bigpiney,439,16JAN2021:00:00:00,27.5,12.65,26.9,26.6,26.2,26.7,25.7,74,75,73,0.361,19.0,19.4,18.5,11.03,11.8,350,10,15.4,0.00009,0.00010,29.1,30.3,10,0,0,0.0,0.01,0.00,0.00
15min,AgWx,bigpiney,439,16JAN2021:00:15:00,27.5,12.65,26.4,25.8,26.4,26.8,25.8,74,76,73,0.358,19.2,19.4,19.1,8.79,9.7,333,11,14.5,0.00007,0.00009,29.1,30.3,10,0,0,0.0,0.01,0.00,0.00
15min,AgWx,bigpiney,439,16JAN2021:00:30:00,27.4,12.64,26.1,25.9,25.9,26.1,25.4,75,76,74,0.354,19.0,19.3,18.8,6.007,6.9,306,25,8.7,0.00004,0.00006,29.2,30.3,10,0,0,0.0,0.01,0.00,0.00
15min,AgWx,bigpiney,439,16JAN2021:00:45:00,27.3,12.64,25.2,25.3,25.6,25.9,25.3,75,76,74,0.354,18.9,19.1,18.8,4.012,4.7,302,8.3,6.4,0.00001,0.00002,29.2,30.3,10,0,0,0.0,0.01,0.00,0.00
15min,AgWx,bigpiney,439,16JAN2021:01:00:00,27.2,12.62,25.1,24.4,24.7,25.2,24.3,77,78,76,0.347,18.6,19.0,18.3,2.981,4.2,285,6.8,5.7,-0.00001,0.00000,29.2,30.4,10,0,0,0.0,0.01,0.00,0.00
15min,AgWx,bigpiney,439,16JAN2021:01:15:00,26.8,12.61,25.5,25.2,24.1,26.1,22.9,78,80,74,0.341,18.1,19.5,16.9,1.688,1.6,283,27,4.6,-0.00008,-0.00009,29.2,30.3,10,0,0,0.0,0.01,0.00,0.00
15min,AgWx,bigpiney,439,16JAN2021:01:30:00,26.5,12.61,28.1,27.3,27.1,28.3,25.1,71,75,69,0.352,19.0,19.6,18.1,4.056,4.2,286,12,6.2,0.00001,0.00003,29.2,30.3,10,0,0,0.0,0.01,0.00,0.00
15min,AgWx,bigpiney,439,16JAN2021:01:45:00,26.5,12.61,27.0,28.2,27.6,28.3,27.0,70,71,69,0.362,19.1,19.5,18.5,2.083,3.7,291,16,6.1,0.00001,0.00002,29.2,30.4,10,0,0,0.0,0.01,0.00,0.00
15min,AgWx,bigpiney,439,16JAN2021:02:00:00,26.4,12.6,27.3,26.6,27.2,28.1,26.2,71,74,69,0.361,19.1,19.5,18.7,9.67,4.6,321,15,10.4,0.00002,0.00004,29.2,30.4,10,0,0,0.0,0.01,0.00,0.00
15min,AgWx,bigpiney,439,16JAN2021:02:15:00,26.5,12.6,28.6,28.4,28.0,28.6,26.7,72,74,70,0.376,20.0,20.3,19.5,15.74,14.5,331,9.6,19.7,0.00012,0.00014,29.2,30.4,10,0,0,0.0,0.01,0.00,0.00
15min,AgWx,bigpiney,439,16JAN2021:02:30:00,27.0,12.59,28.5,28.4,29.4,30.0,28.4,68,71,66,0.367,20.2,20.7,19.5,15.76,17.4,318,9.8,21.4,0.00016,0.00018,29.2,30.3,10,0,0,0.0,0.01,0.00,0.00
15min,AgWx,bigpiney,439,16JAN2021:02:45:00,27.4,12.58,29.5,29.1,28.4,29.1,27.7,70,72,70,0.378,20.0,20.4,19.5,16.79,17.4,312,9.4,22.3,0.00014,0.00016,29.2,30.4,10,0,0,0.0,0.01,0.00,0.00
15min,AgWx,bigpiney,439,16JAN2021:03:00:00,27.8,12.57,29.2,29.2,29.5,29.9,29.1,68,70,68,0.374,20.3,20.5,20.1,15.63,18.7,309,8.0,24.5,0.00016,0.00018,29.2,30.3,10,0,0,0.0,0.01,0.00,0.00
15min,AgWx,bigpiney,439,16JAN2021:03:15:00,28.1,12.56,28.7,29.0,29.0,29.3,28.7,69,69,68,0.365,20.0,20.3,19.6,11.2,16.3,312,7.8,22.1,0.00015,0.00017,29.1,30.4,10,0,0,0.0,0.01,0.00,0.00
15min,AgWx,bigpiney,439,16JAN2021:03:30:00,28.3,12.56,28.8,28.2,28.6,28.9,28.2,68,68,67,0.353,19.3,19.6,18.7,11.62,12.5,324,10,17.0,0.00013,0.00015,29.1,30.4,10,0,0,0.0,0.01,0.00,0.00
15min,AgWx,bigpiney,439,16JAN2021:03:45:00,28.1,12.55,28.8,28.3,28.4,28.7,28.2,67,68,67,0.354,18.9,19.1,18.6,11.75,12.0,321,9.6,16.3,0.00013,0.00015,29.1,30.4,10,0,0,0.0,0.01,0.00,0.00
15min,AgWx,bigpiney,439,16JAN2021:04:00:00,28.0,12.55,28.9,28.4,28.3,28.4,28.1,67,68,67,0.353,18.9,19.0,18.7,14.67,13.7,316,8.1,17.0,0.00014,0.00016,29.1,30.5,10,0,0,0.0,0.01,0.00,0.00
15min,AgWx,bigpiney,439,16JAN2021:04:15:00,27.9,12.54,28.7,28.1,28.1,28.4,27.9,67,67,67,0.349,18.6,18.8,18.4,13.15,12.2,317,9.2,16.1,0.00013,0.00015,29.1,30.4,10,0,0,0.0,0.01,0.00,0.00
15min,AgWx,bigpiney,439,16JAN2021:04:30:00,27.7,12.54,25.5,26.0,27.5,28.2,26.0,67,69,66,0.328,18.0,18.6,17.0,4.845,10.7,307,8.0,15.2,0.00012,0.00014,29.1,30.5,10,0,0,0.0,0.01,0.00,0.00
15min,AgWx,bigpiney,439,16JAN2021:04:45:00,27.0,12.52,22.2,23.8,24.5,26.0,22.6,70,74,69,0.309,16.2,17.1,14.6,3.42,3.7,156,86,6.8,0.00000,0.00001,29.1,30.4,10,0,0,0.0,0.01,0.00,0.00
15min,AgWx,bigpiney,439,16JAN2021:05:00:00,25.8,12.52,23.5,24.3,23.3,24.9,21.0,71,75,68,0.302,15.4,16.6,13.5,2.499,2.7,219,71,5.2,-0.00002,-0.00002,29.1,30.5,10,0,0,0.0,0.01,0.00,0.00
15min,AgWx,bigpiney,439,16JAN2021:05:15:00,24.6,12.51,21.9,22.7,23.3,24.2,22.6,70,72,67,0.297,15.0,15.4,14.0,4.165,4.0,293,17,6.3,0.00001,0.00002,29.1,30.4,10,0,0,0.0,0.01,0.00,0.00
15min,AgWx,bigpiney,439,16JAN2021:05:30:00,23.6,12.51,22.5,22.4,21.5,22.8,20.2,75,79,71,0.306,14.8,16.8,14.0,8.07,6.3,338,16,11.1,0.00003,0.00004,29.1,30.4,10,0,0,0.0,0.01,0.00,0.00
15min,AgWx,bigpiney,439,16JAN2021:05:45:00,23.0,12.48,25.0,24.1,23.2,24.2,21.9,74,76,73,0.323,16.2,16.9,15.1,13.44,11.2,348,13,15.2,0.00007,0.00009,29.1,30.5,10,0,0,0.0,0.01,0.00,0.00
15min,AgWx,bigpiney,439,16JAN2021:06:00:00,23.1,12.49,24.7,24.6,24.9,25.6,24.1,71,73,69,0.313,16.8,17.2,16.1,8.88,11.4,352,9.4,14.7,0.00009,0.00011,29.1,30.5,10,0,0,0.0,0.01,0.00,0.00
15min,AgWx,bigpiney,439,16JAN2021:06:15:00,23.5,12.48,24.9,25.0,24.8,25.2,24.4,70,71,68,0.312,16.3,16.8,16.0,10.28,10.8,359,9.1,14.5,0.00010,0.00011,29.1,30.4,10,0,0,0.0,0.01,0.00,0.00
15min,AgWx,bigpiney,439,16JAN2021:06:30:00,23.7,12.48,24.4,24.1,24.5,25.1,24.1,69,70,68,0.306,15.7,16.1,15.4,9.16,9.8,360,11,15.2,0.00009,0.00011,29.0,30.4,10,0,0,0.0,0.01,0.00,0.00
15min,AgWx,bigpiney,439,16JAN2021:06:45:00,23.8,12.47,24.5,24.9,24.9,25.5,24.1,68,69,66,0.304,15.7,16.1,15.4,7.41,9.3,351,11,14.4,0.00009,0.00011,29.0,30.5,10,0,0,0.0,0.01,0.00,0.00
15min,AgWx,bigpiney,439,16JAN2021:07:00:00,23.6,12.46,24.4,22.6,21.7,24.8,18.9,71,77,66,0.291,13.7,15.5,11.0,1.951,4.7,244,20,9.1,0.00002,0.00003,29.0,30.4,10,0,0,0.0,0.01,0.00,0.00
15min,AgWx,bigpiney,439,16JAN2021:07:15:00,23.2,12.47,24.6,24.4,23.9,25.1,22.3,68,71,64,0.301,14.9,15.7,12.4,4.932,3.9,46,97,9.2,0.00001,0.00003,29.0,30.4,10,0,0,0.0,0.01,0.00,0.00
15min,AgWx,bigpiney,439,16JAN2021:07:30:00,22.8,12.47,25.4,24.2,24.1,24.9,23.1,67,68,65,0.296,14.7,15.5,13.6,4.384,2.8,237,55,7.3,-0.00001,-0.00000,28.9,30.4,10,0,0,0.0,0.01,0.00,0.00
15min,AgWx,bigpiney,439,16JAN2021:07:45:00,22.4,12.49,24.3,24.5,24.5,25.1,23.9,65,67,64,0.295,14.5,15.3,13.7,3.617,3.7,322,26,6.1,0.00002,0.00004,28.9,30.5,10,2,0,0.0,0.01,0.00,0.00
15min,AgWx,bigpiney,439,16JAN2021:08:00:00,22.0,15.03,22.1,21.8,22.8,24.5,21.8,67,69,65,0.277,13.7,14.6,12.7,3.069,4.4,303,24,6.5,0.00004,0.00006,28.9,30.4,10,16,0,0.0,0.01,0.00,0.00
15min,AgWx,bigpiney,439,16JAN2021:08:15:00,21.8,15.03,21.9,21.6,21.7,22.0,21.3,70,71,69,0.284,13.4,13.8,12.8,4.275,3.5,347,14,5.3,-0.00006,0.00002,28.9,30.4,10,41,0,0.0,0.01,0.00,0.00
15min,AgWx,bigpiney,439,16JAN2021:08:30:00,22.1,15.11,23.5,23.6,22.5,23.8,21.5,71,72,69,0.301,14.5,15.4,13.6,7.168,7.6,3.2,13,11.6,0.00013,0.00029,28.8,30.4,10,67,0,0.0,0.01,0.00,0.00